Powrót do katalogu

USA 415

AktywnyMilitariaVLEO
NORAD 61036·PAYLOAD·🇺🇸 United States

Wystrzelony Sep 6, 2024 z Vandenberg Space Force Base

Loading…

Następne Przeloty (najbliższe 24 godziny)

TLE

NieaktualneSource: Mike McCants

Epoka: Sep 4, 2026, 21:04 UTC

1 61036U 24160R   26247.87805011 0.00000000  00000-0  00000-0 0    03
2 61036  70.0230 156.7593 0002000 190.6852 169.3148 14.96713108    01

Śledź USA 415 w czasie rzeczywistym z AllMySat

Download on the App Store